This demonstration page uses our WeatherBlox Daily Observations layout. Learn more.

Left ArrowRight Arrow

34.74481, -87.66753

Hourly Observations for February 12, 2021

Temp ( °F °C ) Dew Point ( °F °C ) Humidity (%) Winds ( mph kmh ) Pressure ( in mb ) Visibility ( mi km ) Precip ( " mm )
12:53 am 00:53 Cloudy with Haze 36 2.2 29 -1.7 76 76 N 6 9 30.09 1019 6 10 0.00 0.00
1:53 am 01:53 Cloudy 35 1.7 29 -1.7 78 78 N 6 9 30.10 1019 8 13 0.00 0.00
2:53 am 02:53 Cloudy 35 1.7 29 -1.7 78 78 N 6 9 30.09 1019 7 11 0.00 0.00
3:53 am 03:53 Cloudy 34 1.1 28 -2.2 79 79 N 9 15 30.11 1020 8 13 0.00 0.00
4:53 am 04:53 Cloudy 34 1.1 28 -2.2 79 79 N 7 11 30.14 1021 9 14 0.00 0.00
5:53 am 05:53 Cloudy 34 1.1 28 -2.2 79 79 N 8 13 30.15 1021 9 14 0.00 0.00
6:53 am 06:53 Cloudy 34 1.1 27 -2.8 76 76 NNE 9 15 30.18 1022 10 16 0.00 0.00
7:53 am 07:53 Cloudy 34 1.1 28 -2.2 79 79 NNE 8 13 30.20 1023 9 14 0.00 0.00
8:17 am 08:17 Cloudy 34 1.1 27 -2.8 76 76 NNE 9 15 30.22 1023 8 13 0.00 0.00
8:53 am 08:53 Cloudy 35 1.7 28 -2.2 76 76 NNE 9 15 30.20 1023 8 13 0.00 0.00
9:01 am 09:01 Cloudy 34 1.1 27 -2.8 76 76 N 9 15 30.22 1023 8 13 0.00 0.00
9:11 am 09:11 Cloudy 34 1.1 27 -2.8 76 76 N 9 15 30.21 1023 7 11 0.00 0.00
9:53 am 09:53 Cloudy 35 1.7 28 -2.2 76 76 N 8 13 30.19 1023 7 11 0.00 0.00
10:53 am 10:53 Cloudy 36 2.2 27 -2.8 70 70 N 9 15 30.19 1022 8 13 0.00 0.00
11:53 am 11:53 Cloudy with Haze 36 2.2 27 -2.8 70 70 NNE 12 19 30.17 1022 6 10 0.00 0.00
12:53 pm 12:53 Cloudy with Haze 36 2.2 28 -2.2 73 73 N 8 13 30.14 1021 5 8 0.00 0.00
1:53 pm 13:53 Cloudy with Haze 36 2.2 27 -2.8 70 70 N 10 17 30.12 1020 5 8 0.00 0.00
2:53 pm 14:53 Cloudy with Haze 36 2.2 27 -2.8 70 70 NNE 8 13 30.14 1021 5 8 0.00 0.00
3:53 pm 15:53 Cloudy with Haze 36 2.2 26 -3.3 67 67 NNE 9 15 30.14 1021 5 8 0.00 0.00
4:02 pm 16:02 Cloudy with Haze 35 1.7 26 -3.3 70 70 NNE 6 9 30.16 1021 5 8 0.00 0.00
4:23 pm 16:23 Cloudy with Haze 35 1.7 26 -3.3 70 70 NNE 9 15 30.17 1022 5 8 0.00 0.00
4:53 pm 16:53 Cloudy with Haze 35 1.7 26 -3.3 70 70 NNE 8 13 30.15 1021 5 8 0.00 0.00
5:53 pm 17:53 Cloudy with Haze 33 0.6 25 -3.9 72 72 NNE 10 17 30.16 1022 6 10 0.00 0.00
6:53 pm 18:53 Cloudy with Haze 33 0.6 25 -3.9 72 72 N 9 15 30.16 1022 6 10 0.00 0.00
7:53 pm 19:53 Cloudy with Haze 32 0 24 -4.4 73 73 NNE 10 17 30.16 1021 6 10 0.00 0.00
8:53 pm 20:53 Cloudy with Haze 32 0 25 -3.9 75 75 NE 8 13 30.16 1021 4 6 0.00 0.00
9:10 pm 21:10 Cloudy with Haze 32 0 25 -3.9 75 75 NE 10 17 30.18 1022 4 6 0.00 0.00
9:53 pm 21:53 Cloudy with Haze 32 0 25 -3.9 75 75 NE 8 13 30.15 1021 4 6 0.00 0.00
10:53 pm 22:53 Cloudy with Haze 32 0 26 -3.3 79 79 NNE 7 11 30.14 1021 3 5 0.00 0.00
11:53 pm 23:53 Cloudy with Haze 32 0 26 -3.3 79 79 N 9 15 30.13 1020 3 5 0.00 0.00

Powered by AerisWeather